WZZ67 LHBP-EDLW

Flight info

Callsign WZZ67
Flight time N/A
Altitude 36000
Route GILEP DCT ZOLKU DCT BEGLA DCT DITIS DCT RAPET T170 RUNEN DCT FULNO/N0420F300 T842 IDEWE/N0380F240 T842 ADEMI ADEMI2A
Aircraft A321/M-SDE1E2E3FGIJ1J4RWXY/LB1G1

Departure

Time 2026-05-06 12:30
Airport Budapest Liszt Ferenc International Airport (LHBP)

Arrival

Time N/A
Airport Dortmund Airport (EDLW)
Time Latitude Longitude Altitude Speed Heading
2026-05-06 12:02 47.43513 19.25976 456 ft 0 kts 312°
2026-05-06 12:25 47.43513 19.25975 457 ft 0 kts 312°
2026-05-06 12:25 47.43525 19.25956 456 ft 4 kts 312°
2026-05-06 12:25 47.43551 19.25923 457 ft 5 kts 332°
2026-05-06 12:26 47.43579 19.25943 455 ft 7 kts 34°
2026-05-06 12:26 47.43624 19.26006 457 ft 10 kts 43°
2026-05-06 12:26 47.43663 19.26042 457 ft 11 kts 14°
2026-05-06 12:26 47.43725 19.25991 457 ft 11 kts 319°
2026-05-06 12:27 47.43798 19.25993 457 ft 12 kts 37°
2026-05-06 12:27 47.43862 19.26082 458 ft 13 kts 41°
2026-05-06 12:27 47.43933 19.26177 458 ft 14 kts 44°
2026-05-06 12:27 47.43997 19.26263 460 ft 0 kts 43°
2026-05-06 12:28 47.44003 19.26271 460 ft 6 kts 43°
2026-05-06 12:28 47.44043 19.26335 464 ft 8 kts 52°
2026-05-06 12:28 47.44061 19.26385 467 ft 5 kts 70°
2026-05-06 12:29 47.44069 19.26466 471 ft 12 kts 92°
2026-05-06 12:29 47.44030 19.26588 470 ft 14 kts 133°
2026-05-06 12:29 47.44021 19.26602 469 ft 0 kts 133°
2026-05-06 12:29 47.44012 19.26616 469 ft 9 kts 132°
2026-05-06 12:30 47.43796 19.26963 472 ft 83 kts 133°
2026-05-06 12:30 47.43247 19.27847 463 ft 148 kts 132°
2026-05-06 12:30 47.42471 19.29155 691 ft 177 kts 137°
2026-05-06 12:30 47.41742 19.30601 1511 ft 177 kts 129°
2026-05-06 12:31 47.41104 19.32211 2180 ft 191 kts 124°
2026-05-06 12:31 47.40419 19.34026 2609 ft 214 kts 123°
2026-05-06 12:31 47.39662 19.36049 3018 ft 236 kts 124°
2026-05-06 12:31 47.38847 19.38224 3535 ft 246 kts 123°
2026-05-06 12:32 47.37778 19.40196 3976 ft 253 kts 152°
2026-05-06 12:32 47.36120 19.40882 4594 ft 251 kts 187°
2026-05-06 12:32 47.34529 19.39930 5364 ft 251 kts 222°
2026-05-06 12:32 47.33459 19.37901 6245 ft 253 kts 238°
2026-05-06 12:33 47.32632 19.35582 7050 ft 257 kts 242°
2026-05-06 12:33 47.31855 19.33204 7812 ft 260 kts 242°
2026-05-06 12:33 47.31038 19.30805 8615 ft 263 kts 241°
2026-05-06 12:33 47.30168 19.28419 9419 ft 266 kts 240°
2026-05-06 12:34 47.29250 19.26035 10162 ft 270 kts 239°
2026-05-06 12:34 47.28260 19.23567 10467 ft 291 kts 238°
2026-05-06 12:34 47.27173 19.20928 10721 ft 311 kts 238°
2026-05-06 12:34 47.26020 19.18175 11275 ft 319 kts 238°
2026-05-06 12:35 47.24842 19.15376 11975 ft 323 kts 238°
2026-05-06 12:35 47.23649 19.12550 12674 ft 327 kts 238°
2026-05-06 12:35 47.22442 19.09694 13394 ft 331 kts 238°
2026-05-06 12:35 47.21315 19.06736 14008 ft 335 kts 248°
2026-05-06 12:36 47.20763 19.03379 14578 ft 341 kts 264°
2026-05-06 12:36 47.20932 18.99889 15153 ft 348 kts 281°
2026-05-06 12:36 47.21816 18.96589 15722 ft 357 kts 297°
2026-05-06 12:36 47.23324 18.93567 16311 ft 365 kts 305°
2026-05-06 12:37 47.24883 18.90656 16864 ft 370 kts 305°
2026-05-06 12:37 47.26489 18.87654 17433 ft 375 kts 305°
2026-05-06 12:37 47.28131 18.84574 18032 ft 380 kts 305°
2026-05-06 12:37 47.29747 18.81536 18559 ft 384 kts 305°
2026-05-06 12:38 47.31396 18.78433 19117 ft 386 kts 305°
2026-05-06 12:38 47.33054 18.75309 19692 ft 388 kts 305°
2026-05-06 12:38 47.34716 18.72175 20263 ft 389 kts 305°
2026-05-06 12:38 47.36388 18.69014 20860 ft 391 kts 305°
2026-05-06 12:39 47.38058 18.65848 21461 ft 393 kts 305°
2026-05-06 12:39 47.39742 18.62652 22065 ft 394 kts 304°
2026-05-06 12:39 47.41237 18.59279 22654 ft 392 kts 295°
2026-05-06 12:39 47.42305 18.55587 23184 ft 391 kts 284°
2026-05-06 12:40 47.43086 18.51735 23683 ft 392 kts 284°
2026-05-06 12:40 47.43867 18.47871 24103 ft 395 kts 284°
2026-05-06 12:40 47.44663 18.43962 24509 ft 397 kts 284°
2026-05-06 12:40 47.45461 18.40051 24932 ft 399 kts 284°
2026-05-06 12:41 47.46262 18.36121 25356 ft 402 kts 284°
2026-05-06 12:41 47.47070 18.32152 25778 ft 403 kts 284°
2026-05-06 12:41 47.47878 18.28173 26196 ft 405 kts 284°
2026-05-06 12:41 47.48675 18.24161 26602 ft 407 kts 283°
2026-05-06 12:42 47.49401 18.20110 27025 ft 408 kts 281°
2026-05-06 12:42 47.50073 18.16032 27467 ft 409 kts 280°
2026-05-06 12:42 47.50720 18.11927 27878 ft 410 kts 280°
2026-05-06 12:42 47.51360 18.07813 28265 ft 412 kts 280°
2026-05-06 12:43 47.52010 18.03681 28651 ft 414 kts 280°
2026-05-06 12:43 47.52668 17.99572 29013 ft 416 kts 281°
2026-05-06 12:43 47.53355 17.95343 29374 ft 418 kts 281°
2026-05-06 12:43 47.54033 17.91197 29730 ft 420 kts 281°
2026-05-06 12:44 47.54722 17.86988 30056 ft 422 kts 281°
2026-05-06 12:44 47.55461 17.82777 30370 ft 425 kts 285°
2026-05-06 12:44 47.56591 17.78711 30736 ft 430 kts 294°
2026-05-06 12:44 47.58095 17.74859 31092 ft 432 kts 297°
2026-05-06 12:45 47.59628 17.71041 31446 ft 432 kts 297°
2026-05-06 12:45 47.61156 17.67221 31956 ft 428 kts 296°
2026-05-06 12:45 47.64157 17.59678 32977 ft 421 kts 296°
2026-05-06 12:46 47.65631 17.55950 33473 ft 417 kts 296°
2026-05-06 12:46 47.67089 17.52256 33973 ft 413 kts 296°
2026-05-06 12:46 47.68535 17.48591 34350 ft 412 kts 296°
2026-05-06 12:46 47.69984 17.44922 34673 ft 412 kts 295°
2026-05-06 12:47 47.71432 17.41250 34951 ft 413 kts 295°
2026-05-06 12:47 47.72883 17.37561 35215 ft 413 kts 295°
2026-05-06 12:47 47.74332 17.33867 35480 ft 414 kts 295°
2026-05-06 12:47 47.75779 17.30168 35730 ft 416 kts 295°
2026-05-06 12:48 47.77236 17.26439 35838 ft 416 kts 295°
2026-05-06 12:48 47.80125 17.19037 35840 ft 413 kts 295°
2026-05-06 12:49 47.83046 17.11686 35846 ft 415 kts 300°
2026-05-06 12:49 47.86681 17.04939 35836 ft 419 kts 304°
2026-05-06 12:50 47.90387 16.98250 35833 ft 418 kts 304°
2026-05-06 12:50 47.94080 16.91545 35836 ft 419 kts 303°
2026-05-06 12:51 47.97777 16.84816 35825 ft 419 kts 303°
2026-05-06 12:51 48.01464 16.78087 35825 ft 419 kts 303°
2026-05-06 12:52 48.05154 16.71336 35822 ft 419 kts 303°
2026-05-06 12:52 48.08822 16.64621 35830 ft 420 kts 303°
2026-05-06 12:53 48.12504 16.57850 35831 ft 419 kts 303°
2026-05-06 12:53 48.16203 16.51026 35830 ft 419 kts 303°
2026-05-06 12:54 48.19849 16.44289 35851 ft 419 kts 303°
2026-05-06 12:54 48.23507 16.37505 35837 ft 418 kts 303°
2026-05-06 12:55 48.27161 16.30715 35826 ft 418 kts 303°
2026-05-06 12:55 48.30802 16.23926 35819 ft 417 kts 303°
2026-05-06 12:56 48.34444 16.17133 35804 ft 417 kts 303°
2026-05-06 12:56 48.38087 16.10342 35816 ft 417 kts 302°
2026-05-06 12:57 48.41723 16.03522 35819 ft 418 kts 302°
2026-05-06 12:57 48.45356 15.96682 35811 ft 418 kts 302°
2026-05-06 12:58 48.48990 15.89826 35802 ft 418 kts 302°
2026-05-06 12:58 48.52618 15.82966 35799 ft 418 kts 302°
2026-05-06 12:59 48.56240 15.76104 35812 ft 418 kts 302°
2026-05-06 12:59 48.59867 15.69211 35783 ft 419 kts 302°
2026-05-06 13:00 48.63493 15.62303 35779 ft 420 kts 302°
2026-05-06 13:00 48.67127 15.55369 35798 ft 421 kts 302°
2026-05-06 13:01 48.70759 15.48416 35791 ft 421 kts 302°
2026-05-06 13:01 48.74392 15.41440 35819 ft 423 kts 302°
2026-05-06 13:02 48.78012 15.34471 35797 ft 424 kts 301°
2026-05-06 13:02 48.81657 15.27431 35790 ft 425 kts 301°
2026-05-06 13:03 48.85307 15.20368 35790 ft 425 kts 301°
2026-05-06 13:03 48.88954 15.13281 35792 ft 426 kts 301°
2026-05-06 13:04 48.92553 15.06140 35820 ft 425 kts 300°
2026-05-06 13:04 48.96071 14.98895 35807 ft 425 kts 300°
2026-05-06 13:05 48.99573 14.91640 35808 ft 426 kts 300°
2026-05-06 13:05 49.03094 14.84374 35809 ft 427 kts 300°
2026-05-06 13:06 49.06618 14.77099 35803 ft 428 kts 300°
2026-05-06 13:06 49.10162 14.69798 35831 ft 428 kts 300°
2026-05-06 13:07 49.13686 14.62479 35819 ft 427 kts 300°
2026-05-06 13:07 49.17197 14.55151 35812 ft 427 kts 300°
2026-05-06 13:08 49.20706 14.47806 35809 ft 428 kts 299°
2026-05-06 13:08 49.24216 14.40458 35806 ft 428 kts 300°
2026-05-06 13:09 49.27722 14.33117 35838 ft 428 kts 299°
2026-05-06 13:09 49.31225 14.25744 35832 ft 428 kts 299°
2026-05-06 13:10 49.34727 14.18350 35824 ft 429 kts 299°
2026-05-06 13:10 49.38227 14.10938 35821 ft 429 kts 299°
2026-05-06 13:11 49.41721 14.03516 35812 ft 429 kts 299°
2026-05-06 13:11 49.45214 13.96088 35836 ft 429 kts 299°
2026-05-06 13:12 49.48713 13.88631 35816 ft 430 kts 299°
2026-05-06 13:12 49.52209 13.81151 35817 ft 430 kts 299°
2026-05-06 13:13 49.55697 13.73658 35812 ft 430 kts 299°
2026-05-06 13:13 49.58588 13.67433 35810 ft 430 kts 299°
2026-05-06 13:14 49.62066 13.59933 35823 ft 430 kts 299°
2026-05-06 13:14 49.66110 13.51193 35796 ft 430 kts 299°
2026-05-06 13:15 49.69014 13.44893 35790 ft 430 kts 299°
2026-05-06 13:15 49.72470 13.37374 35791 ft 431 kts 298°
2026-05-06 13:16 49.75938 13.29809 35794 ft 431 kts 298°
2026-05-06 13:16 49.79404 13.22216 35801 ft 432 kts 298°
2026-05-06 13:17 49.82846 13.14674 35802 ft 432 kts 298°
2026-05-06 13:17 49.86307 13.07066 35804 ft 432 kts 298°
2026-05-06 13:18 49.89754 12.99445 35804 ft 432 kts 298°
2026-05-06 13:18 49.93195 12.91810 35821 ft 431 kts 299°
2026-05-06 13:19 49.96630 12.84178 35814 ft 432 kts 299°
2026-05-06 13:19 50.00072 12.76516 35838 ft 433 kts 299°
2026-05-06 13:20 50.03514 12.68834 35825 ft 433 kts 299°
2026-05-06 13:20 50.06957 12.61138 35819 ft 434 kts 299°
2026-05-06 13:21 50.10396 12.53434 35802 ft 434 kts 299°
2026-05-06 13:21 50.13832 12.45692 35806 ft 434 kts 299°
2026-05-06 13:22 50.16662 12.37538 35800 ft 424 kts 285°
2026-05-06 13:22 50.18769 12.28937 35794 ft 425 kts 285°
2026-05-06 13:23 50.20849 12.20309 35790 ft 425 kts 285°
2026-05-06 13:23 50.22925 12.11665 35814 ft 425 kts 285°
2026-05-06 13:24 50.25011 12.03006 35822 ft 426 kts 285°
2026-05-06 13:24 50.27087 11.94349 35847 ft 426 kts 285°
2026-05-06 13:25 50.29146 11.85695 35837 ft 425 kts 285°
2026-05-06 13:25 50.31206 11.77023 35834 ft 426 kts 285°
2026-05-06 13:26 50.33261 11.68321 35832 ft 426 kts 285°
2026-05-06 13:26 50.35309 11.59620 35851 ft 426 kts 285°
2026-05-06 13:27 50.37348 11.50913 35829 ft 426 kts 285°
2026-05-06 13:27 50.39385 11.42194 35815 ft 426 kts 285°
2026-05-06 13:28 50.41421 11.33463 35806 ft 426 kts 284°
2026-05-06 13:28 50.43444 11.24721 35804 ft 426 kts 284°
2026-05-06 13:29 50.45460 11.15980 35818 ft 426 kts 284°
2026-05-06 13:29 50.47474 11.07221 35790 ft 427 kts 284°
2026-05-06 13:30 50.49480 10.98447 35778 ft 427 kts 284°
2026-05-06 13:30 50.51482 10.89649 35785 ft 428 kts 284°
2026-05-06 13:31 50.53471 10.80892 35784 ft 429 kts 284°
2026-05-06 13:31 50.55480 10.72069 35799 ft 429 kts 285°
2026-05-06 13:32 50.57471 10.63248 35770 ft 430 kts 284°
2026-05-06 13:32 50.59839 10.54571 35766 ft 436 kts 292°
2026-05-06 13:33 50.62640 10.46104 35753 ft 437 kts 292°
2026-05-06 13:33 50.64008 10.41839 35510 ft 436 kts 291°
2026-05-06 13:33 50.65321 10.37530 35262 ft 434 kts 290°
2026-05-06 13:33 50.66589 10.33218 35019 ft 433 kts 289°
2026-05-06 13:34 50.67824 10.28937 34788 ft 431 kts 289°
2026-05-06 13:34 50.69058 10.24662 34549 ft 429 kts 290°
2026-05-06 13:34 50.70304 10.20385 34312 ft 427 kts 290°
2026-05-06 13:34 50.71547 10.16151 34056 ft 423 kts 290°
2026-05-06 13:35 50.72773 10.11999 33587 ft 420 kts 290°
2026-05-06 13:35 50.74014 10.07799 33103 ft 417 kts 290°
2026-05-06 13:35 50.75234 10.03665 32640 ft 413 kts 289°
2026-05-06 13:35 50.76439 9.99571 32186 ft 409 kts 289°
2026-05-06 13:36 50.77628 9.95515 31723 ft 405 kts 289°
2026-05-06 13:36 50.78804 9.91496 31276 ft 402 kts 289°
2026-05-06 13:36 50.79973 9.87487 30853 ft 399 kts 290°
2026-05-06 13:36 50.81124 9.83534 30387 ft 396 kts 290°
2026-05-06 13:37 50.82263 9.79613 29954 ft 392 kts 290°
2026-05-06 13:37 50.83397 9.75707 29482 ft 389 kts 290°
2026-05-06 13:37 50.84514 9.71855 29064 ft 384 kts 290°
2026-05-06 13:37 50.85622 9.68028 28657 ft 379 kts 290°
2026-05-06 13:38 50.86715 9.64248 28252 ft 375 kts 290°
2026-05-06 13:38 50.87833 9.60541 27768 ft 375 kts 294°
2026-05-06 13:38 50.89077 9.56956 27741 ft 371 kts 295°
2026-05-06 13:38 50.90362 9.53383 27742 ft 376 kts 295°
2026-05-06 13:39 50.91680 9.49797 27742 ft 377 kts 296°
2026-05-06 13:39 50.93010 9.46194 27226 ft 381 kts 296°
2026-05-06 13:39 50.94328 9.42607 26444 ft 377 kts 295°
2026-05-06 13:39 50.95628 9.39058 25683 ft 368 kts 295°
2026-05-06 13:40 50.96916 9.35524 24952 ft 363 kts 295°
2026-05-06 13:40 50.98140 9.32138 24247 ft 358 kts 295°
2026-05-06 13:40 50.99388 9.28664 23528 ft 354 kts 295°
2026-05-06 13:40 51.00596 9.25286 22719 ft 349 kts 295°
2026-05-06 13:41 51.01774 9.21992 22328 ft 347 kts 295°
2026-05-06 13:41 51.02963 9.18662 22055 ft 346 kts 295°
2026-05-06 13:41 51.04166 9.15296 21784 ft 345 kts 295°
2026-05-06 13:41 51.05347 9.11986 21514 ft 344 kts 295°
2026-05-06 13:42 51.06508 9.08727 21256 ft 343 kts 295°
2026-05-06 13:42 51.07679 9.05436 20994 ft 342 kts 295°
2026-05-06 13:42 51.08845 9.02155 20733 ft 340 kts 295°
2026-05-06 13:42 51.10007 8.98891 20469 ft 336 kts 295°
2026-05-06 13:43 51.11163 8.95641 19941 ft 337 kts 295°
2026-05-06 13:43 51.12333 8.92343 19450 ft 338 kts 295°
2026-05-06 13:43 51.13471 8.89130 18968 ft 338 kts 295°
2026-05-06 13:43 51.14631 8.85861 18485 ft 339 kts 295°
2026-05-06 13:44 51.15806 8.82544 17994 ft 340 kts 295°
2026-05-06 13:44 51.16963 8.79275 17443 ft 339 kts 295°
2026-05-06 13:44 51.18117 8.76002 16924 ft 338 kts 295°
2026-05-06 13:44 51.19262 8.72750 16391 ft 337 kts 295°
2026-05-06 13:45 51.20390 8.69542 15884 ft 335 kts 295°
2026-05-06 13:45 51.22673 8.63045 14970 ft 331 kts 296°
2026-05-06 13:45 51.23784 8.59874 14726 ft 322 kts 295°
2026-05-06 13:46 51.24863 8.56785 14495 ft 315 kts 296°
2026-05-06 13:46 51.25922 8.53746 14250 ft 311 kts 296°
2026-05-06 13:46 51.26971 8.50740 14017 ft 309 kts 296°
2026-05-06 13:46 51.27984 8.47728 13779 ft 306 kts 290°
2026-05-06 13:47 51.28668 8.44542 13539 ft 304 kts 284°
2026-05-06 13:47 51.29266 8.41299 13284 ft 303 kts 284°
2026-05-06 13:47 51.29857 8.38066 13011 ft 302 kts 284°
2026-05-06 13:47 51.30443 8.34861 12747 ft 300 kts 284°
2026-05-06 13:48 51.31019 8.31664 12413 ft 300 kts 283°
2026-05-06 13:48 51.31567 8.28435 11614 ft 297 kts 282°
2026-05-06 13:48 51.32085 8.25275 10861 ft 291 kts 282°
2026-05-06 13:48 51.32585 8.22179 10281 ft 281 kts 281°
2026-05-06 13:49 51.33071 8.19168 10044 ft 279 kts 281°
2026-05-06 13:49 51.33554 8.16179 9814 ft 275 kts 281°
2026-05-06 13:49 51.34025 8.13272 9507 ft 273 kts 281°
2026-05-06 13:49 51.34500 8.10337 9147 ft 272 kts 281°
2026-05-06 13:50 51.34974 8.07414 8791 ft 271 kts 281°
2026-05-06 13:50 51.35449 8.04495 8445 ft 270 kts 281°
2026-05-06 13:50 51.35924 8.01549 8089 ft 270 kts 282°
2026-05-06 13:50 51.36391 7.98653 7740 ft 268 kts 282°
2026-05-06 13:51 51.36854 7.95774 7392 ft 267 kts 282°
2026-05-06 13:51 51.37316 7.92904 7042 ft 266 kts 282°
2026-05-06 13:51 51.37771 7.90079 6705 ft 265 kts 282°
2026-05-06 13:51 51.38226 7.87269 6482 ft 259 kts 282°
2026-05-06 13:52 51.38674 7.84491 6165 ft 256 kts 282°
2026-05-06 13:52 51.39116 7.81741 5817 ft 255 kts 283°
2026-05-06 13:52 51.39476 7.78971 5492 ft 258 kts 276°
2026-05-06 13:52 51.39657 7.76078 5158 ft 263 kts 274°
2026-05-06 13:53 51.39804 7.73157 4808 ft 262 kts 273°
2026-05-06 13:53 51.39936 7.70261 4428 ft 261 kts 274°
2026-05-06 13:53 51.40052 7.67349 4055 ft 260 kts 275°
2026-05-06 13:53 51.40125 7.64479 4005 ft 259 kts 273°
2026-05-06 13:54 51.40188 7.61592 3970 ft 259 kts 274°
2026-05-06 13:54 51.40244 7.58702 3407 ft 258 kts 274°
2026-05-06 13:54 51.40294 7.55906 3075 ft 242 kts 274°
2026-05-06 13:54 51.40335 7.53309 2991 ft 225 kts 274°
2026-05-06 13:55 51.40357 7.50897 2995 ft 212 kts 274°
2026-05-06 13:55 51.40388 7.48579 3013 ft 206 kts 274°
2026-05-06 13:55 51.40429 7.46290 3010 ft 204 kts 278°
2026-05-06 13:55 51.40956 7.44258 3006 ft 199 kts 314°
2026-05-06 13:56 51.42064 7.42953 3030 ft 198 kts 330°
2026-05-06 13:56 51.43335 7.42201 3015 ft 195 kts 359°
2026-05-06 13:56 51.44627 7.42783 3013 ft 197 kts 29°
2026-05-06 13:56 51.45719 7.44132 2853 ft 204 kts 48°
2026-05-06 13:57 51.46484 7.46069 2592 ft 208 kts 58°
2026-05-06 13:57 51.47188 7.48066 2281 ft 203 kts 59°
2026-05-06 13:57 51.47642 7.49351 2113 ft 195 kts 58°
2026-05-06 13:57 51.48476 7.51713 1756 ft 165 kts 58°
2026-05-06 13:58 51.49001 7.53199 1528 ft 145 kts 58°
2026-05-06 13:58 51.49325 7.54115 1394 ft 139 kts 56°
2026-05-06 13:58 51.49797 7.55451 1189 ft 136 kts 58°
2026-05-06 13:58 51.50262 7.56766 1011 ft 135 kts 57°
2026-05-06 13:59 51.50725 7.58077 823 ft 135 kts 58°